TimeAKDT,TemperatureF,Dew PointF,Humidity,Sea Level PressureIn,VisibilityMPH,Wind Direction,Wind SpeedMPH,Gust SpeedMPH,PrecipitationIn,Events,Conditions,WindDirDegrees,DateUTC
12:53 AM,46.9,45.0,93,30.09,10.0,Calm,Calm,-,N/A,,Overcast,0,2012-10-10 08:53:00
1:24 AM,46.4,44.6,93,30.09,6.0,Calm,Calm,-,0.00,,Light Drizzle,0,2012-10-10 09:24:00
1:53 AM,46.0,46.0,100,30.09,3.0,Calm,Calm,-,0.00,,Light Drizzle,0,2012-10-10 09:53:00
2:53 AM,46.9,46.0,97,30.08,6.0,Calm,Calm,-,0.00,,Light Drizzle,0,2012-10-10 10:53:00
3:53 AM,46.9,45.0,93,30.07,10.0,Calm,Calm,-,0.00,,Overcast,0,2012-10-10 11:53:00
4:53 AM,46.0,45.0,96,30.05,10.0,Calm,Calm,-,N/A,,Overcast,0,2012-10-10 12:53:00
5:53 AM,46.0,43.0,89,30.04,10.0,North,3.5,-,N/A,,Overcast,10,2012-10-10 13:53:00
6:53 AM,46.0,42.1,86,30.04,10.0,NNE,3.5,-,N/A,,Overcast,20,2012-10-10 14:53:00
7:40 AM,44.6,42.8,93,30.03,5.0,North,4.6,-,N/A,,Overcast,350,2012-10-10 15:40:00
7:53 AM,44.1,43.0,96,30.03,0.8,North,3.5,-,N/A,,Overcast,350,2012-10-10 15:53:00
7:57 AM,42.8,42.8,100,30.02,0.8,North,3.5,-,N/A,,Overcast,360,2012-10-10 15:57:00
8:53 AM,43.0,42.1,97,30.03,0.2,North,4.6,-,N/A,,Overcast,360,2012-10-10 16:53:00
9:43 AM,42.8,41.0,93,30.03,5.0,Calm,Calm,-,N/A,,Mostly Cloudy,0,2012-10-10 17:43:00
9:53 AM,43.0,39.0,86,30.03,5.0,North,3.5,-,N/A,,Mostly Cloudy,350,2012-10-10 17:53:00
10:53 AM,44.1,39.9,85,30.04,10.0,Calm,Calm,-,N/A,,Overcast,0,2012-10-10 18:53:00
11:53 AM,46.9,42.1,83,30.03,10.0,NNE,4.6,-,N/A,,Scattered Clouds,30,2012-10-10 19:53:00
12:53 PM,50.0,41.0,71,30.03,10.0,North,4.6,-,N/A,,Scattered Clouds,10,2012-10-10 20:53:00
1:53 PM,50.0,42.1,74,30.02,10.0,NNE,8.1,-,N/A,,Partly Cloudy,20,2012-10-10 21:53:00
2:53 PM,51.1,39.0,63,30.00,10.0,North,9.2,-,N/A,,Clear,360,2012-10-10 22:53:00
3:53 PM,51.1,39.0,63,30.00,10.0,North,9.2,-,N/A,,Partly Cloudy,350,2012-10-10 23:53:00
4:53 PM,50.0,39.9,68,29.99,10.0,North,8.1,-,N/A,,Partly Cloudy,350,2012-10-11 00:53:00
5:53 PM,51.1,39.0,63,29.97,10.0,NNE,6.9,-,N/A,,Partly Cloudy,20,2012-10-11 01:53:00
6:53 PM,48.9,39.9,71,29.97,10.0,North,4.6,-,N/A,,Partly Cloudy,360,2012-10-11 02:53:00
7:53 PM,48.0,39.9,74,29.96,10.0,Calm,Calm,-,N/A,,Clear,0,2012-10-11 03:53:00
8:53 PM,46.0,37.0,71,29.95,10.0,NNW,3.5,-,N/A,,Clear,340,2012-10-11 04:53:00
9:53 PM,42.1,37.9,85,29.95,10.0,North,3.5,-,N/A,,Clear,360,2012-10-11 05:53:00
10:53 PM,43.0,37.9,82,29.95,10.0,Variable,3.5,-,N/A,,Clear,0,2012-10-11 06:53:00
11:53 PM,42.1,28.9,60,29.93,10.0,Calm,Calm,-,N/A,,Clear,0,2012-10-11 07:53:00